JBU1817 TTCP-TVSA

Flight info

Callsign JBU1817
Flight time 0h 30m
Altitude 16000
Route TAB DCT GND/N0360F150 DCT RESAS DCT KESBI DCT UKREK
Aircraft A20N/M-SDE2E3FGHIRWXY/LB1

Departure

Time 2026-05-04 16:39
Airport A.N.R. Robinson International Airport (TTCP)

Arrival

Time 2026-05-04 17:10
Airport Argyle International Airport (TVSA)
Time Latitude Longitude Altitude Speed Heading
2026-05-04 16:29 11.15192 -60.83948 51 ft 0 kts
2026-05-04 16:33 11.15164 -60.83950 49 ft 1 kts
2026-05-04 16:34 11.15125 -60.83962 49 ft 3 kts 12°
2026-05-04 16:34 11.15113 -60.83966 52 ft 0 kts 281°
2026-05-04 16:35 11.15112 -60.83964 52 ft 0 kts 281°
2026-05-04 16:36 11.15118 -60.83998 53 ft 12 kts 280°
2026-05-04 16:36 11.15046 -60.84203 54 ft 19 kts 234°
2026-05-04 16:37 11.15000 -60.84435 54 ft 19 kts 248°
2026-05-04 16:37 11.15003 -60.84473 57 ft 0 kts 306°
2026-05-04 16:37 11.15057 -60.84399 54 ft 13 kts 101°
2026-05-04 16:38 11.15054 -60.84374 55 ft 0 kts 96°
2026-05-04 16:39 11.14903 -60.82284 443 ft 162 kts 93°
2026-05-04 16:39 11.15211 -60.80052 2149 ft 170 kts 59°
2026-05-04 16:40 11.17483 -60.79068 3668 ft 216 kts 347°
2026-05-04 16:40 11.19219 -60.81825 4704 ft 274 kts 274°
2026-05-04 16:41 11.19383 -60.85172 5522 ft 289 kts 274°
2026-05-04 16:41 11.21496 -60.90868 6981 ft 296 kts 310°
2026-05-04 16:42 11.25713 -60.95571 8409 ft 304 kts 315°
2026-05-04 16:43 11.28603 -60.98730 9393 ft 310 kts 315°
2026-05-04 16:43 11.31551 -61.01996 10358 ft 315 kts 314°
2026-05-04 16:43 11.33038 -61.03650 10819 ft 318 kts 314°
2026-05-04 16:44 11.39200 -61.10497 12760 ft 353 kts 315°
2026-05-04 16:45 11.42688 -61.14373 13783 ft 388 kts 315°
2026-05-04 16:46 11.48395 -61.20726 15168 ft 417 kts 315°
2026-05-04 16:46 11.52347 -61.25129 16109 ft 430 kts 315°
2026-05-04 16:47 11.56444 -61.29693 17088 ft 440 kts 315°
2026-05-04 16:47 11.60637 -61.34364 17734 ft 456 kts 314°
2026-05-04 16:48 11.67065 -61.41533 17976 ft 458 kts 314°
2026-05-04 16:48 11.69224 -61.43943 17980 ft 458 kts 314°
2026-05-04 16:49 11.73529 -61.48746 17979 ft 458 kts 314°
2026-05-04 16:49 11.77838 -61.53558 17983 ft 458 kts 314°
2026-05-04 16:50 11.82137 -61.58359 17984 ft 458 kts 314°
2026-05-04 16:50 11.86418 -61.63144 17989 ft 459 kts 314°
2026-05-04 16:51 11.90725 -61.67959 17995 ft 459 kts 314°
2026-05-04 16:51 11.92879 -61.70369 17997 ft 459 kts 314°
2026-05-04 16:51 11.97845 -61.74271 18001 ft 452 kts 337°
2026-05-04 16:52 12.03878 -61.75686 17998 ft 444 kts
2026-05-04 16:52 12.06929 -61.75357 18000 ft 439 kts 15°
2026-05-04 16:53 12.12327 -61.73031 17654 ft 404 kts 31°
2026-05-04 16:53 12.19312 -61.69222 17044 ft 359 kts 29°
2026-05-04 16:54 12.21521 -61.68108 16836 ft 347 kts 28°
2026-05-04 16:55 12.30145 -61.63870 16057 ft 342 kts 28°
2026-05-04 16:55 12.34438 -61.61768 15674 ft 341 kts 28°
2026-05-04 16:56 12.38698 -61.59681 15176 ft 335 kts 28°
2026-05-04 16:56 12.44662 -61.56764 14143 ft 300 kts 29°
2026-05-04 16:57 12.46536 -61.55845 13803 ft 299 kts 29°
2026-05-04 16:57 12.50264 -61.54011 13053 ft 297 kts 29°
2026-05-04 16:58 12.55798 -61.51293 11942 ft 292 kts 29°
2026-05-04 16:58 12.57578 -61.50316 11583 ft 288 kts 36°
2026-05-04 16:59 12.60944 -61.48110 10875 ft 285 kts 36°
2026-05-04 17:00 12.67595 -61.43839 9460 ft 280 kts 34°
2026-05-04 17:00 12.72455 -61.40588 8344 ft 277 kts 37°
2026-05-04 17:01 12.75452 -61.38252 7616 ft 263 kts 41°
2026-05-04 17:01 12.78380 -61.35992 6923 ft 264 kts 39°
2026-05-04 17:02 12.81289 -61.33885 6204 ft 253 kts 38°
2026-05-04 17:02 12.84142 -61.31849 5222 ft 246 kts 38°
2026-05-04 17:03 12.85533 -61.30857 4814 ft 241 kts 38°
2026-05-04 17:03 12.86911 -61.29872 4429 ft 241 kts 38°
2026-05-04 17:03 12.89645 -61.27917 3659 ft 238 kts 38°
2026-05-04 17:04 12.92309 -61.26013 3159 ft 226 kts 38°
2026-05-04 17:04 12.94750 -61.24275 3004 ft 200 kts 38°
2026-05-04 17:05 12.97077 -61.22604 3048 ft 206 kts 38°
2026-05-04 17:05 12.99625 -61.21253 3041 ft 208 kts 24°
2026-05-04 17:06 13.02314 -61.20222 2913 ft 195 kts 25°
2026-05-04 17:06 13.03567 -61.19738 2788 ft 191 kts 25°
2026-05-04 17:07 13.06042 -61.18802 2285 ft 191 kts 21°
2026-05-04 17:07 13.06883 -61.18568 2092 ft 179 kts 21°
2026-05-04 17:07 13.08323 -61.18018 1710 ft 154 kts 27°
2026-05-04 17:07 13.09271 -61.17622 1406 ft 141 kts 30°
2026-05-04 17:08 13.10177 -61.17309 1268 ft 138 kts 24°
2026-05-04 17:08 13.11949 -61.16541 843 ft 133 kts 30°
2026-05-04 17:08 13.12807 -61.16183 628 ft 135 kts 25°
2026-05-04 17:09 13.13686 -61.15822 435 ft 133 kts 27°
2026-05-04 17:09 13.14507 -61.15453 233 ft 128 kts 24°
2026-05-04 17:09 13.15295 -61.15151 125 ft 118 kts 24°
2026-05-04 17:10 13.16253 -61.14774 90 ft 21 kts 20°
2026-05-04 17:10 13.16806 -61.14558 62 ft 34 kts 22°
2026-05-04 17:11 13.17026 -61.14502 56 ft 31 kts 357°
2026-05-04 17:11 13.17167 -61.14460 52 ft 0 kts 66°
2026-05-04 17:11 13.17159 -61.14452 52 ft 4 kts 125°
2026-05-04 17:12 13.17162 -61.14418 49 ft 0 kts 83°
2026-05-04 17:12 13.17181 -61.14390 50 ft 0 kts 28°
2026-05-04 17:14 13.17020 -61.14445 54 ft 17 kts 182°
2026-05-04 17:14 13.16985 -61.14452 51 ft 0 kts 206°
2026-05-04 17:14 13.16930 -61.14490 53 ft 12 kts 213°
2026-05-04 17:15 13.16866 -61.14532 57 ft 9 kts 212°
2026-05-04 17:15 13.16751 -61.14578 61 ft 17 kts 198°
2026-05-04 17:16 13.16535 -61.14667 73 ft 17 kts 200°
2026-05-04 17:16 13.16204 -61.14830 91 ft 8 kts 279°
2026-05-04 17:17 13.16389 -61.14926 84 ft 39 kts 330°
2026-05-04 17:17 13.16438 -61.15008 84 ft 0 kts 277°